Location: Bothwell
(42.3833°S, 147.0000°E)
Time: 20:40:01
(UTC+11:00)

AO-85 - Pass Details

Date: 03 October 2022
Orbit: 513 x 757 km, 64.8° (Epoch: 24 November)

Event Time Altitude Azimuth Distance (km) Brightness Sun altitude
Rises 21:42:04 0° 302° (WNW) 2,729 ? -25.4°
Reaches altitude 10° 21:44:22 10° 291° (WNW) 1,875 ? -25.7°
Maximum altitude 21:48:11 32° 227° (SW) 1,036 ? -26.3°
Drops below altitude 10° 21:52:18 10° 163° (SSE) 2,027 ? -26.9°
Sets 21:54:54 0° 152° (SSE) 2,989 ? -27.3°
